DW2973 Frederiksvaerk DK current weather conditions

sailwx.info

Wind from 355

Air temperature 10.0° C
Dewpoint 7.6° C

Last reported at 2019-Sep-21 21:02 UTC.
Time now 2019-Sep-21 21:31 UTC

Location: N 55°59' E 011°59'.
View on Google Maps.

See reports from other nearby stations

  
Tides and Currents Weather Stations Pressure Air Temp Water Temp Dewpoint Dewpoint Depression Visibility Wind Speed Wind Dir Waves Ship Positions
date/time (UTC)wind fromknots sea level pressurealtimeterstation pressurevisibilityair tempwater tempwave heightnotes
2019-Sep-21 21:02 355 10.0
2019-Sep-21 20:47 355 10.0
2019-Sep-21 20:32 355 9.4
2019-Sep-21 20:16 355 10.0
2019-Sep-21 20:03 355 10.0
2019-Sep-21 19:46 355 10.0
2019-Sep-21 19:32 355 9.4
2019-Sep-21 19:16 355 10.0
2019-Sep-21 19:01 355 10.0
2019-Sep-21 18:47 355 10.6
2019-Sep-21 18:31 355 10.6
2019-Sep-21 18:16 355 10.6
2019-Sep-21 18:01 355 11.1
2019-Sep-21 17:47 355 11.7
2019-Sep-21 17:31 355 12.2
2019-Sep-21 17:16 355 12.8
2019-Sep-21 17:00 355 13.9
2019-Sep-21 16:46 355 14.4
2019-Sep-21 16:31 355 15.0
2019-Sep-21 16:15 355 15.0
2019-Sep-21 16:01 355 15.0
2019-Sep-21 15:45 355 15.0
2019-Sep-21 15:30 355 15.0
2019-Sep-21 15:15 355 15.0
2019-Sep-21 15:01 360 15.6
2019-Sep-21 14:45 360 16.1
2019-Sep-21 14:31 015 16.1
2019-Sep-21 14:15 307 16.7
2019-Sep-21 14:00 255 17.8
2019-Sep-21 13:45 257 17.8
2019-Sep-21 13:30 261 17.2
2019-Sep-21 13:15 240 17.2
2019-Sep-21 13:00 280 16.7
2019-Sep-21 12:45 235 0 16.1
2019-Sep-21 12:30 233 0 16.1
2019-Sep-21 12:15 236 0 15.6
2019-Sep-21 12:00 284 15.6
2019-Sep-21 11:46 278 15.0
2019-Sep-21 11:31 226 0 15.0
2019-Sep-21 11:17 360 14.4
2019-Sep-21 11:02 329 14.4
2019-Sep-21 10:47 327 14.4
2019-Sep-21 10:31 245 0 14.4
2019-Sep-21 10:17 253 14.4
2019-Sep-21 10:01 308 13.9
2019-Sep-21 09:46 298 13.9
2019-Sep-21 09:30 300 13.9
2019-Sep-21 09:16 253 0 13.9
2019-Sep-21 09:01 309 13.9
2019-Sep-21 08:46 261 13.9
2019-Sep-21 08:31 277 0 13.9
2019-Sep-21 08:15 243 0 13.3
2019-Sep-21 08:01 263 0 13.3
2019-Sep-21 07:46 264 13.3
2019-Sep-21 07:30 253 0 12.8
2019-Sep-21 07:16 291 12.8
2019-Sep-21 07:01 275 12.8
2019-Sep-21 06:46 281 0 12.8
2019-Sep-21 06:31 291 12.8
2019-Sep-21 06:16 260 12.8
2019-Sep-21 06:01 294 12.8
2019-Sep-21 05:46 322 12.8
2019-Sep-21 05:30 277 0 12.2
2019-Sep-21 05:16 261 0 12.2
2019-Sep-21 05:01 256 0 12.2
2019-Sep-21 04:46 355 12.2
2019-Sep-21 04:31 256 12.2
2019-Sep-21 04:16 313 12.2
2019-Sep-21 04:00 235 12.2
2019-Sep-21 03:45 261 12.8
2019-Sep-21 03:31 242 12.8
2019-Sep-21 03:15 280 12.8
2019-Sep-21 03:00 264 0 12.8
2019-Sep-21 02:46 281 0 12.8
2019-Sep-21 02:30 241 0 12.8
2019-Sep-21 02:15 257 0 12.8
2019-Sep-21 02:00 268 12.8
2019-Sep-21 01:45 269 12.8
2019-Sep-21 01:30 256 0 12.8
2019-Sep-21 01:15 267 0 12.8
2019-Sep-21 01:00 256 0 12.8
2019-Sep-21 00:45 238 0 12.8
2019-Sep-21 00:30 288 0 12.8
2019-Sep-21 00:15 276 12.8
2019-Sep-21 00:00 254 0 12.8
2019-Sep-20 23:45 221 12.8
2019-Sep-20 23:30 251 0 12.8
2019-Sep-20 23:15 256 0 12.8
2019-Sep-20 23:00 309 0 12.8
2019-Sep-20 22:45 292 0 12.8
2019-Sep-20 22:30 263 0 12.8
2019-Sep-20 22:15 237 0 12.8
2019-Sep-20 22:00 252 0 12.8
2019-Sep-20 21:45 267 1 12.8
2019-Sep-20 21:30 254 0 12.8
2019-Sep-20 21:15 241 0 13.3
2019-Sep-20 21:00 282 0 12.8
2019-Sep-20 20:47 319 1 13.3
2019-Sep-20 20:32 252 13.3
2019-Sep-20 20:17 252 1 13.3
2019-Sep-20 20:01 287 0 13.3
2019-Sep-20 19:46 287 0 13.3
2019-Sep-20 19:32 236 0 13.3
2019-Sep-20 19:18 293 13.3
2019-Sep-20 19:02 319 13.3
2019-Sep-20 18:46 266 0 13.3
2019-Sep-20 18:33 290 0 13.3
2019-Sep-20 18:17 273 0 13.3
2019-Sep-20 18:01 309 0 13.3
2019-Sep-20 17:47 351 0 13.3
2019-Sep-20 17:32 348 0 13.3
2019-Sep-20 17:16 290 0 13.9
2019-Sep-20 17:02 279 0 13.9
2019-Sep-20 16:46 230 0 13.9
2019-Sep-20 16:31 318 0 14.4
2019-Sep-20 16:17 249 0 14.4
2019-Sep-20 16:01 259 0 14.4
2019-Sep-20 15:46 263 15.0
2019-Sep-20 15:31 266 15.0
2019-Sep-20 15:16 251 0 15.0
2019-Sep-20 15:01 263 0 15.0
2019-Sep-20 14:46 256 0 15.0
2019-Sep-20 14:31 262 0 15.0
2019-Sep-20 14:15 242 0 15.0
2019-Sep-20 14:01 347 0 15.0
2019-Sep-20 13:46 254 1 14.4
2019-Sep-20 13:31 245 2 14.4
2019-Sep-20 13:15 243 3 14.4
2019-Sep-20 13:01 260 2 14.4
2019-Sep-20 12:46 249 1 14.4
2019-Sep-20 12:31 249 1 14.4
2019-Sep-20 12:16 260 0 14.4
2019-Sep-20 12:01 281 1 14.4
2019-Sep-20 11:45 261 0 14.4
2019-Sep-20 11:31 348 1 14.4
2019-Sep-20 11:16 238 0 14.4
2019-Sep-20 11:00 261 0 14.4
2019-Sep-20 10:46 259 0 13.9
2019-Sep-20 10:30 253 0 13.9
2019-Sep-20 10:16 309 1 13.9
2019-Sep-20 10:00 277 1 13.9
2019-Sep-20 09:45 258 0 14.4
2019-Sep-20 09:30 290 0 14.4
2019-Sep-20 09:15 226 1 14.4
2019-Sep-20 09:01 319 1 14.4
2019-Sep-20 08:46 237 1 13.9
2019-Sep-20 08:30 230 0 13.3
2019-Sep-20 08:15 269 0 13.3
2019-Sep-20 08:00 233 0 13.3
2019-Sep-20 07:45 286 0 12.8
2019-Sep-20 07:30 341 1 12.8
2019-Sep-20 07:15 317 1 12.2
2019-Sep-20 07:00 244 1 12.2
2019-Sep-20 06:45 287 2 12.2
2019-Sep-20 06:30 340 1 12.2
2019-Sep-20 06:15 254 2 11.7
2019-Sep-20 06:00 235 1 11.7
2019-Sep-20 05:45 213 0 11.7
2019-Sep-20 05:30 254 0 11.7
2019-Sep-20 05:17 267 0 11.7
2019-Sep-20 05:01 267 0 11.7
2019-Sep-20 04:47 234 0 11.7
2019-Sep-20 04:31 269 0 11.1
2019-Sep-20 04:16 315 0 11.1
2019-Sep-20 04:02 253 11.1
2019-Sep-20 03:46 254 0 11.1
2019-Sep-20 03:31 314 0 11.1
2019-Sep-20 03:17 046 0 10.6
2019-Sep-20 03:02 284 10.6
2019-Sep-20 02:46 284 0 10.6
2019-Sep-20 02:32 276 10.6
2019-Sep-20 02:16 302 0 10.6
2019-Sep-20 02:01 235 0 11.1
2019-Sep-20 01:46 316 0 10.6
2019-Sep-20 01:31 322 0 10.6
2019-Sep-20 01:16 302 10.6
2019-Sep-20 01:02 316 10.6
2019-Sep-20 00:45 271 0 10.6
2019-Sep-20 00:32 304 0 10.6
2019-Sep-20 00:15 296 10.6
2019-Sep-20 00:00 344 0 10.6
2019-Sep-19 23:45 342 0 10.0
2019-Sep-19 23:30 295 9.4
2019-Sep-19 23:15 323 9.4
2019-Sep-19 23:01 322 8.9
2019-Sep-19 22:45 322 8.3
2019-Sep-19 22:30 005 7.8
2019-Sep-19 22:15 005 7.8
2019-Sep-19 22:00 360 7.2
2019-Sep-19 21:45 005 7.2
2019-Sep-19 21:30 360 7.2
2019-Sep-19 21:16 005 7.2
2019-Sep-19 21:00 005 7.2